Stations météo

Publicité
Paris-Montsouris, France (7156): Température de l'air & dewpoint: 24.03.2017 14:00:00 - 30.03.2017 14:00:00 (CEST)Paris-Montsouris, France (7156): Température de l'air 5cm: 24.03.2017 14:00:00 - 30.03.2017 14:00:00 (CEST)Paris-Montsouris, France (7156): Température de l'air -20cm & Température de l'air -100cm: 24.03.2017 14:00:00 - 30.03.2017 14:00:00 (CEST)Paris-Montsouris, France (7156): Vitesse du vent & gusts: 24.03.2017 14:00:00 - 30.03.2017 14:00:00 (CEST)Paris-Montsouris, France (7156): Direction du vent: 24.03.2017 14:00:00 - 30.03.2017 14:00:00 (CEST)Paris-Montsouris, France (7156): reduced air pressure: 24.03.2017 14:00:00 - 30.03.2017 14:00:00 (CEST)Paris-Montsouris, France (7156): visibility: 24.03.2017 14:00:00 - 30.03.2017 14:00:00 (CEST)Paris-Montsouris, France (7156): Ensoleillement: 24.03.2017 14:00:00 - 30.03.2017 14:00:00 (CEST)Paris-Montsouris, France (7156): Quantités de précipitations: 24.03.2017 14:00:00 - 30.03.2017 14:00:00 (CEST)
Date & Time tt [°C] td [°C] tt 5cm [°C] tt -20cm [°C] tt -100cm [°C] ff [km/h] ff [knt] fx [km/h] fx [knt] dd ppp [hPa] vv [km] sd [min] rr [mm]
30.03.2017 14:00:00 22,1 7,9 25,1 10,1 9,5 14 7 35 19 SE 1022,3 20 60 0,0
30.03.2017 13:00:00 20,8 8,1 20,6 10,0 9,5 11 6 26 14 ESE 1023,2 20 60 0,0
30.03.2017 12:00:00 19,5 8,5 24,3 9,9 9,5 8 5 20 11 SSE 1023,9 20 60 0,0
30.03.2017 11:00:00 17,1 7,2 12,3 9,9 9,5 5 3 18 10 SSE 1024,7 20 60 0,0
30.03.2017 10:00:00 13,5 6,6 10,3 9,9 9,5 10 6 19 10 SE 1024,8 20 60 0,0
30.03.2017 09:00:00 11,8 6,5 6,0 10,0 9,5 5 3 12 7 SSE 1025,2 20 60 0,0
30.03.2017 08:00:00 10,2 6,3 4,5 10,1 9,5 6 4 10 6 SSE 1025,1 20 5 0,0
30.03.2017 07:00:00 10,3 6,6 4,9 10,2 9,5 6 3 12 7 SSE 1025,1 20 0 0,0
30.03.2017 06:00:00 10,8 6,7 5,6 10,3 9,4 8 4 14 7 SSE 1025,1 20 0 0,0
30.03.2017 05:00:00 11,1 6,8 5,4 10,4 9,5 9 5 16 9 SSE 1025,4 20 0 0,0
30.03.2017 04:00:00 11,4 7,1 5,1 10,5 9,5 6 3 13 7 SSE 1025,5 20 0 0,0
30.03.2017 03:00:00 11,6 6,9 5,2 10,6 9,5 8 4 14 7 S 1025,8 20 0 0,0
30.03.2017 02:00:00 12,5 7,2 6,5 10,7 9,5 5 3 11 6 S 1026,1 20 0 0,0
30.03.2017 01:00:00 13,3 7,5 7,4 10,8 9,5 6 4 11 6 SSE 1026,2 20 0 0,0
30.03.2017 00:00:00 14,0 7,3 7,9 10,8 9,4 6 3 12 7 SSE 1026,3 20 0 0,0
29.03.2017 23:00:00 14,9 7,9 8,7 10,9 9,4 6 3 10 5 S 1026,3 20 0 0,0
29.03.2017 22:00:00 15,5 7,8 8,8 11,0 9,4 5 3 10 5 S 1026,0 20 0 0,0
29.03.2017 21:00:00 16,5 7,2 9,7 11,0 9,5 7 4 15 8 SW 1025,8 20 0 0,0
29.03.2017 20:00:00 18,0 7,4 13,4 11,0 9,4 9 5 21 11 SSW 1025,3 20 7 0,0
29.03.2017 19:00:00 19,2 7,9 17,1 10,9 9,5 8 4 23 13 SSW 1025,0 20 35 0,0
29.03.2017 18:00:00 20,1 7,5 20,6 10,7 9,4 10 6 27 14 WSW 1025,1 20 57 0,0
29.03.2017 17:00:00 20,0 8,3 21,7 10,5 9,4 11 6 31 17 SSW 1025,3 20 58 0,0
29.03.2017 16:00:00 20,4 8,4 24,1 10,3 9,4 11 6 27 15 SSW 1025,8 20 60 0,0
29.03.2017 15:00:00 19,9 7,3 22,0 10,0 9,4 13 7 27 15 S 1026,6 20 48 0,0
29.03.2017 14:00:00 18,1 7,8 20,0 9,8 9,4 11 6 29 16 SSW 1027,2 20 21 0,0
29.03.2017 13:00:00 16,1 8,1 17,3 9,7 9,4 11 6 21 12 S 1027,9 20 0 0,0
29.03.2017 12:00:00 15,1 7,9 14,1 9,6 9,4 9 5 21 12 S 1028,3 20 12 0,0
29.03.2017 11:00:00 11,9 7,0 11,6 9,6 9,4 8 4 15 8 SSE 1028,5 20 0 0,0
29.03.2017 10:00:00 10,7 6,4 10,1 9,6 9,4 6 3 18 10 S 1028,3 20 0 0,0
29.03.2017 09:00:00 9,4 5,8 7,9 9,6 9,4 10 5 19 10 S 1027,8 20 5 0,0
29.03.2017 08:00:00 8,5 5,2 3,1 9,7 9,4 9 5 17 9 S 1027,5 19 3 0,0
29.03.2017 07:00:00 8,3 5,2 2,7 9,8 9,4 8 4 16 8 SSW 1027,2 20 0 0,0
29.03.2017 06:00:00 9,1 5,5 3,5 9,9 9,4 8 4 12 6 SSW 1026,8 20 0 0,0
29.03.2017 05:00:00 9,9 5,9 4,3 10,0 9,4 4 2 18 10 SW 1026,7 20 0 0,0
29.03.2017 04:00:00 10,8 5,7 6,5 10,1 9,4 10 5 24 13 W 1026,6 20 0 0,0
29.03.2017 03:00:00 11,5 5,4 6,5 10,1 9,4 10 5 21 12 W 1026,8 20 0 0,0
29.03.2017 02:00:00 11,8 5,6 6,5 10,3 9,4 7 4 26 14 WSW 1026,7 20 0 0,0
29.03.2017 01:00:00 12,6 5,7 6,9 10,4 9,4 8 4 25 14 WSW 1026,6 20 0 0,0
29.03.2017 00:00:00 13,4 6,3 8,0 10,4 9,4 13 7 25 14 WSW 1026,5 20 0 0,0
28.03.2017 23:00:00 13,0 8,3 5,9 10,5 9,4 8 4 18 10 SW 1026,1 20 0 0,0
28.03.2017 22:00:00 13,7 8,3 7,3 10,6 9,4 9 5 17 9 SSW 1025,6 20 0 0,0
28.03.2017 21:00:00 14,8 7,8 9,4 10,6 9,4 9 5 21 11 SW 1025,1 20 0 0,0
28.03.2017 20:00:00 16,0 6,1 13,3 10,5 9,4 10 5 37 20 WSW 1024,7 20 36 0,0
28.03.2017 19:00:00 16,9 6,7 16,2 10,4 9,4 20 11 39 21 WSW 1024,1 20 25 0,0
28.03.2017 18:00:00 18,2 7,3 17,2 10,3 9,4 16 8 40 22 WSW 1023,7 20 53 0,0
28.03.2017 17:00:00 17,6 6,8 17,3 10,1 9,4 16 9 35 19 WSW 1023,7 20 42 0,0
28.03.2017 16:00:00 18,2 10,3 17,7 9,9 9,4 13 7 35 19 WSW 1023,8 20 10 0,0
28.03.2017 15:00:00 16,9 7,5 18,1 9,7 9,4 13 7 33 18 SW 1023,9 20 0 0,0
28.03.2017 14:00:00 16,6 8,5 16,5 9,6 9,4 13 7 27 15 SW 1024,0 20 8 0,0
28.03.2017 13:00:00 15,6 8,3 16,4 9,5 9,4 11 6 23 13 SW 1024,1 20 0 0,0
28.03.2017 12:00:00 15,0 7,5 14,5 9,4 9,4 8 4 25 14 WSW 1023,9 20 0 0,0
28.03.2017 11:00:00 14,3 6,1 12,4 9,5 9,4 11 6 25 13 SW 1023,6 20 31 0,0
28.03.2017 10:00:00 12,7 6,5 8,6 9,5 9,4 13 7 23 12 SW 1023,1 20 49 0,0
28.03.2017 09:00:00 10,4 6,0 4,6 9,6 9,4 4 2 11 6 S 1022,4 18 57 0,0
28.03.2017 08:00:00 8,7 5,4 2,9 9,7 9,4 8 4 15 8 SSW 1022,0 15 1 0,0
28.03.2017 07:00:00 8,6 5,3 3,3 9,8 9,3 9 5 17 9 SSW 1021,4 12 0 0,0
28.03.2017 06:00:00 8,8 6,1 2,4 9,9 9,4 6 3 11 6 S 1020,9 11 0 0,0
28.03.2017 05:00:00 9,5 6,0 3,3 10,0 9,3 9 5 15 8 SSW 1020,6 10 0 0,0
28.03.2017 04:00:00 9,5 5,9 3,1 10,1 9,4 7 4 15 8 S 1020,6 10 0 0,0
28.03.2017 03:00:00 10,6 6,0 4,3 10,2 9,3 5 3 17 9 SSE 1020,6 12 0 0,0
28.03.2017 02:00:00 11,5 6,2 5,1 10,4 9,4 9 5 14 8 SSE 1020,5 8 0 0,0
28.03.2017 01:00:00 12,6 6,0 5,7 10,4 9,3 6 4 11 6 S 1020,1 13 0 0,0
28.03.2017 00:00:00 13,6 5,7 6,6 10,5 9,3 6 3 13 7 SE 1020,0 15 0 0,0
27.03.2017 23:00:00 13,9 5,8 6,8 10,6 9,3 8 4 15 8 ESE 1019,9 13 0 0,0
27.03.2017 22:00:00 14,5 5,6 7,3 10,7 9,3 6 3 13 7 ESE 1019,7 16 0 0,0
27.03.2017 21:00:00 14,9 5,4 7,8 10,7 9,3 5 3 16 9 E 1019,1 18 0 0,0
27.03.2017 20:00:00 16,6 5,5 11,8 10,7 9,4 11 6 26 14 ESE 1018,9 20 48 0,0
27.03.2017 19:00:00 18,2 5,4 16,2 10,7 9,3 12 7 32 17 SE 1018,7 19 60 0,0
27.03.2017 18:00:00 18,9 5,7 20,1 10,5 9,3 17 9 35 19 SSE 1018,6 19 60 0,0
27.03.2017 17:00:00 18,7 4,8 20,2 10,3 9,3 14 8 39 21 SE 1018,6 20 60 0,0
27.03.2017 16:00:00 19,1 4,4 23,9 10,0 9,3 15 8 34 19 E 1018,7 20 60 0,0
27.03.2017 15:00:00 19,0 6,1 24,6 9,8 9,3 15 8 27 14 E 1019,0 20 60 0,0
27.03.2017 14:00:00 18,2 5,1 22,2 9,6 9,3 11 6 23 12 SSE 1019,6 20 60 0,0
27.03.2017 13:00:00 16,9 5,5 16,8 9,5 9,3 8 4 22 12 SE 1020,3 20 60 0,0
27.03.2017 12:00:00 15,7 3,8 21,0 9,4 9,3 6 3 13 7 ESE 1020,5 19 60 0,0
27.03.2017 11:00:00 13,4 4,3 9,6 9,4 9,3 5 3 13 7 SE 1020,6 20 60 0,0
27.03.2017 10:00:00 10,7 3,0 6,9 9,5 9,3 8 4 18 10 E 1020,9 20 60 0,0
27.03.2017 09:00:00 9,7 3,4 3,4 9,6 9,3 6 4 12 7 E 1020,7 19 58 0,0
27.03.2017 08:00:00 8,5 3,1 2,6 9,7 9,3 5 3 12 6 ENE 1020,4 18 0 0,0
27.03.2017 07:00:00 8,8 3,4 3,0 9,8 9,3 6 3 13 7 E 1020,4 19 0 0,0
27.03.2017 06:00:00 9,3 3,5 3,2 9,9 9,3 5 3 10 5 ENE 1020,2 19 0 0,0
27.03.2017 05:00:00 10,1 4,2 3,3 10,0 9,3 5 3 16 8 E 1020,1 18 0 0,0
27.03.2017 04:00:00 10,4 4,3 3,6 10,1 9,3 6 4 12 7 NE 1020,5 18 0 0,0
27.03.2017 03:00:00 11,1 5,4 5,1 10,3 9,3 5 3 10 6 E 1020,8 16 0 0,0
27.03.2017 02:00:00 11,4 6,1 5,3 10,4 9,3 4 2 10 5 E 1021,2 6 0 0,0
27.03.2017 01:00:00 11,7 6,2 5,2 10,5 9,3 6 3 14 8 E 1021,1 9 0 0,0
27.03.2017 00:00:00 12,3 6,3 6,3 10,6 9,3 8 4 17 9 ESE 1020,9 15 0 0,0
26.03.2017 23:00:00 13,0 6,3 6,7 10,6 9,3 8 4 14 8 SE 1021,1 17 0 0,0
26.03.2017 22:00:00 14,1 6,7 8,3 10,7 9,3 8 4 21 12 ESE 1020,9 19 0 0,0
26.03.2017 21:00:00 14,9 6,7 10,2 10,7 9,2 9 5 20 11 ESE 1020,3 20 0 0,0
26.03.2017 20:00:00 15,7 6,4 12,8 10,6 9,2 11 6 26 14 SSE 1019,8 20 6 0,0
26.03.2017 19:00:00 17,5 7,0 17,2 10,5 9,3 10 5 27 15 SSE 1019,4 20 53 0,0
26.03.2017 18:00:00 18,3 7,1 19,2 10,3 9,3 10 5 24 13 ESE 1019,3 20 52 0,0
26.03.2017 17:00:00 18,3 6,8 20,4 10,1 9,3 10 6 26 14 SE 1019,7 20 60 0,0
26.03.2017 16:00:00 18,4 7,5 24,0 9,8 9,2 10 5 23 12 E 1019,9 20 60 0,0
26.03.2017 15:00:00 17,1 6,3 23,4 9,5 9,2 9 5 22 12 E 1020,4 19 60 0,0
26.03.2017 14:00:00 16,3 6,4 18,7 9,4 9,2 8 4 20 11 ESE 1020,4 20 60 0,0
26.03.2017 13:00:00 14,5 5,8 15,4 9,2 9,2 8 4 22 12 ESE 1020,6 20 60 0,0
26.03.2017 12:00:00 13,7 4,0 17,2 9,2 9,2 9 5 21 12 E 1020,7 20 60 0,0
26.03.2017 11:00:00 11,4 3,2 9,1 9,2 9,2 13 7 26 14 E 1020,5 20 60 0,0
26.03.2017 10:00:00 9,2 1,1 7,4 9,2 9,2 9 5 26 14 ENE 1019,9 20 60 0,0
26.03.2017 09:00:00 8,5 0,7 4,3 9,3 9,2 9 5 22 12 NE 1019,7 20 56 0,0
26.03.2017 08:00:00 8,0 0,5 3,1 9,5 9,2 11 6 23 12 ENE 1019,4 20 0 0,0
26.03.2017 07:00:00 8,0 0,2 2,9 9,5 9,2 10 5 26 14 NE 1018,7 20 0 0,0
26.03.2017 06:00:00 8,8 0,2 4,2 9,7 9,2 10 5 26 14 ENE 1018,7 20 0 0,0
26.03.2017 05:00:00 9,2 0,4 3,8 9,8 9,2 13 7 31 17 ENE 1019,1 20 0 0,0
26.03.2017 04:00:00 9,1 0,5 2,6 9,8 9,2 9 5 22 12 NE 1019,0 20 0 0,0
26.03.2017 03:00:00 9,7 0,6 4,5 10,0 9,2 9 5 26 14 NE 1018,9 20 0 0,0
26.03.2017 02:00:00 10,8 0,8 6,0 10,1 9,2 12 6 31 17 ENE 1018,8 20 0 0,0
26.03.2017 01:00:00 11,5 1,4 7,7 10,1 9,2 15 8 35 19 ENE 1018,9 20 0 0,0
26.03.2017 00:00:00 12,4 1,4 8,4 10,2 9,2 14 8 40 22 ENE 1018,9 20 0 0,0
25.03.2017 23:00:00 13,8 0,4 9,5 10,3 9,2 21 11 41 22 ENE 1018,9 20 0 0,0
25.03.2017 22:00:00 14,6 0,4 10,3 10,4 9,2 19 10 42 23 ENE 1018,7 20 0 0,0
25.03.2017 21:00:00 15,3 -0,1 11,3 10,4 9,2 16 9 49 26 ENE 1018,0 20 0 0,0
25.03.2017 20:00:00 16,2 -0,1 12,7 10,4 9,2 17 9 56 31 ENE 1017,6 20 47 0,0
25.03.2017 19:00:00 17,6 0,3 15,5 10,4 9,2 24 13 66 36 ENE 1017,1 20 60 0,0
25.03.2017 18:00:00 18,9 0,9 18,5 10,3 9,2 25 14 63 34 ENE 1017,0 20 60 0,0
25.03.2017 17:00:00 18,8 1,7 19,6 10,0 9,2 28 15 66 35 ENE 1017,4 20 60 0,0
25.03.2017 16:00:00 18,6 2,0 22,6 9,8 9,2 27 14 68 37 NE 1018,0 20 60 0,0
25.03.2017 15:00:00 17,5 3,4 22,5 9,6 9,2 28 15 53 29 NE 1019,0 20 60 0,0
25.03.2017 14:00:00 15,7 4,1 18,5 9,4 9,2 24 13 48 26 ENE 1020,1 19 60 0,0
25.03.2017 13:00:00 13,8 4,1 14,2 9,3 9,2 25 14 46 25 ENE 1021,1 19 60 0,0
25.03.2017 12:00:00 12,6 4,8 16,4 9,2 9,2 20 11 47 26 NE 1021,7 16 60 0,0
25.03.2017 11:00:00 10,5 4,4 7,7 9,2 9,2 21 12 45 24 NE 1022,3 14 60 0,0
25.03.2017 10:00:00 8,3 3,7 6,6 9,3 9,2 20 11 45 24 NE 1022,8 12 60 0,0
25.03.2017 09:00:00 7,4 3,8 4,5 9,4 9,2 17 9 35 19 NE 1023,3 11 51 0,0
25.03.2017 08:00:00 6,9 3,7 3,7 9,5 9,2 16 8 30 16 NE 1023,7 10 0 0,0
25.03.2017 07:00:00 7,3 4,1 4,0 9,6 9,2 14 8 29 15 NNE 1023,8 11 0 0,0
25.03.2017 06:00:00 7,6 4,5 4,4 9,7 9,2 12 7 31 17 NNE 1024,1 10 0 0,0
25.03.2017 05:00:00 8,4 5,0 5,2 9,7 9,2 12 7 36 19 NNE 1024,5 9 0 0,0
25.03.2017 04:00:00 9,2 5,2 6,5 9,8 9,2 16 9 34 18 ENE 1025,0 11 0 0,0
25.03.2017 03:00:00 9,7 5,9 6,2 9,9 9,2 16 8 29 16 NE 1025,5 11 0 0,0
25.03.2017 02:00:00 10,0 6,2 6,8 10,0 9,2 13 7 29 16 NE 1025,4 10 0 0,0
25.03.2017 01:00:00 10,1 6,6 6,9 10,1 9,1 13 7 31 17 ENE 1025,7 9 0 0,0
25.03.2017 00:00:00 9,9 7,1 6,4 10,2 9,1 11 6 27 15 NE 1025,7 7 0 0,0
24.03.2017 23:00:00 10,6 7,5 5,6 10,3 9,1 14 8 30 16 NNE 1025,7 8 0 0,0
24.03.2017 22:00:00 10,6 7,3 5,6 10,3 9,1 11 6 19 10 NNE 1025,7 9 0 0,0
24.03.2017 21:00:00 10,4 6,9 6,5 10,4 9,2 8 4 23 13 NE 1025,3 9 0 0,0
24.03.2017 20:00:00 11,3 6,8 9,4 10,4 9,1 10 5 34 18 ENE 1025,0 10 0 0,0
24.03.2017 19:00:00 11,7 7,4 11,3 10,3 9,1 14 8 36 19 ENE 1024,3 9 0 0,0
24.03.2017 18:00:00 11,9 7,4 11,6 10,2 9,1 14 8 34 18 NE 1024,1 9 0 0,0
24.03.2017 17:00:00 12,3 7,8 12,4 10,1 9,1 16 9 37 20 ENE 1024,1 10 0 0,0
24.03.2017 16:00:00 12,9 8,2 13,9 9,9 9,1 18 10 42 23 NE 1023,8 11 1 0,0
24.03.2017 15:00:00 14,2 9,0 16,6 9,8 9,1 16 9 35 19 NE 1023,8 17 2 0,0
24.03.2017 14:00:00 - - - - - - - - - - - - - -

tt = Température de l'air
td = dewpoint
tt 5cm = Température de l'air 5cm
tt -20cm = Température de l'air -20cm
tt -100cm = Température de l'air -100cm
ff = Vitesse du vent
fx = gusts
dd = Direction du vent
ppp = reduced air pressure
vv = visibility
sd = Ensoleillement
rr = Quantités de précipitations

stations d'obs. à proximité